Skip Page Navigation
NASA JPL Caltech
NASA Logo - Jet Propulsion Laboratory + View the NASA Portal
+ Center for Near-Earth Object Studies
JPL Home Earth Solar System Stars & Galaxies Technology
JPL Solar System Dynamics
BODIES ORBITS EPHEMERIDES TOOLS PHYSICAL DATA DISCOVERY FAQ SITE MAP
JPL Small-Body Database Browser
Search: [ help ]  
(2019 AE3)
Classification: Aten [NEO]          SPK-ID: 3837605
Ephemeris | Orbit Diagram | Orbital Elements | Mission Design | Physical Parameters | Close-Approach Data ]

[ hide orbit diagram ]

For accurate long-term ephemerides, please instead use our Horizons system.This orbit viewer was implemented using two-body methods, and hence should not be used for determining accurate long-term trajectories (over several years or decades) or planetary encounter circumstances.


[ revert to old Java-based viewer ]

Orbital Elements at Epoch 2459000.5 (2020-May-31.0) TDB
Reference: JPL 2 (heliocentric ecliptic J2000)
 Element Value Uncertainty (1-sigma)   Units 
e .09984641310268189 6.9517e-05  
a .9949756583509349 0.00011449 au
q .8956309077401146 0.00017197 au
i 14.82238324200716 0.017071 deg
node 101.8765080971755 0.00090769 deg
peri 269.8592150378437 0.074696 deg
M 227.3034619693295 0.048689 deg
tp 2459134.120841576443
(2020-Oct-11.62084158)
0.072091 TDB
period 362.5075957626041
0.99
0.062568
0.0001713
d
yr
n .9930826393931721 0.0001714 deg/d
Q 1.094320408961755 0.00012592 au
  Orbit Determination Parameters
   # obs. used (total)      23  
   data-arc span      2 days  
   first obs. used      2019-01-03  
   last obs. used      2019-01-05  
   planetary ephem.      DE431  
   SB-pert. ephem.      SB431-N16  
   condition code      6  
   norm. resid. RMS      .40586  
   source      ORB  
   producer      Otto Matic  
   solution date      2019-Jul-19 05:26:42  

Additional Information
 Earth MOID = .00202071 au 
 Jupiter MOID = 4.08921 au 
 T_jup = 6.071 
[ show covariance matrix ]

Ephemeris | Orbit Diagram | Orbital Elements | Mission Design | Physical Parameters | Close-Approach Data ]

Physical Parameter Table
Parameter Symbol Value Units Sigma Reference Notes
absolute magnitude H 27.4   .6298 MPO477910 autocmod 2.6q

[ hide close-approach data ]
Close-Approach Data   ...sorted by Date/Time (TDB)
Date/Time (TDB) Time Uncertainty
(days_HH:MM)
Body Nominal Distance (au) Minimum Distance (au) Maximum Distance (au) V-relative (km/s) V-infinity (km/s) JD (TDB) Time Uncertainty (minutes) Semi-major axis (km) Semi-minor axis (km) range-LOV angle (deg) N-sigma BP Orbit Ref. Reference Modified
1954-Jan-12 23:29 9_23:53 Earth 0.316171102792726 0.0527951877119007 0.584945604161438 14.9197722849847 14.9192074309839 2434755.478169811 14392.7675282778 13427737.2903173 791.948865834746 4.79053028589461 3990.06693176416 T 2 CATAB v2.0e-lin.ifort 2019-Jul-19 05:26:49 2019-Jul-19 05:27
1955-Jan-09 22:20 6_03:27 Earth 0.226686101481711 0.050461475612875 0.406023718698708 12.6457301980403 12.6448006763829 2435117.430508098 8847.23505978171 8963970.15566972 725.95346276391 5.30750300854274 3434.98662965991 T 2 CATAB v2.0e-lin.ifort 2019-Jul-19 05:26:49 2019-Jul-19 05:27
1956-Jan-07 02:25 2_15:06 Earth 0.138817290582081 0.0537933378509463 0.225641491929691 10.6510534383998 10.6492511969491 2435479.600511551 3785.76660550454 4356834.05482519 670.086521502657 8.22071985267613 3549.78867864846 T 2 CATAB v2.0e-lin.ifort 2019-Jul-19 05:26:49 2019-Jul-19 05:27
1957-Jan-03 18:05 07:49 Earth 0.054246044745055 0.0455557549508416 0.0640333547565926 9.08908497321958 9.0836792565107 2435842.253391126 469.160828159125 600880.53396655 438.724100287767 39.250285620368 8261.95663443628 T 2 CATAB v2.0e-lin.ifort 2019-Jul-19 05:26:49 2019-Jul-19 05:27
1958-Jan-02 02:43 2_01:03 Earth 0.0219403357051688 0.00938298757950686 0.134540136066065 8.13272815902277 8.11778191437157 2436205.612940938 2943.17158857682 5704429.41600831 326.129385454781 -25.3997899920359 3730.21209095265 T 2 CATAB v2.0e-lin.ifort 2019-Jul-19 05:26:49 2019-Jul-19 05:27
1959-Jan-01 08:08 03:36 Earth 0.113922740489836 0.0192153666893605 0.23024821583268 7.7666813359438 7.76366936577784 2436569.838850439 215.837081836752 5842154.0995673 555.629428765773 -9.73200951407973 4265.01310279168 T 2 CATAB v2.0e-lin.ifort 2019-Jul-19 05:26:49 2019-Jul-19 05:27
1960-Jan-03 21:54 6_06:39 Earth 0.206758890215593 0.0849195966015012 0.328577154930735 8.33690471600339 8.33535880818435 2436937.412246511 9038.99193803313 6074218.54017837 482.198919150364 -0.0325228067189895 10.0072225573608 T 2 CATAB v2.0e-lin.ifort 2019-Jul-19 05:26:49 2019-Jul-19 05:27
1963-Jun-21 10:12 9_00:08 Earth 0.135543918793444 0.0453907026485952 0.267985113349004 10.2467850782614 10.2448664742312 2438201.924876903 12967.6173545123 6801453.26863301 293.315683413333 -19.5791427216078 13582.7687834286 T 2 CATAB v2.0e-lin.ifort 2019-Jul-19 05:26:49 2019-Jul-19 05:27
1964-Jun-14 13:41 8_00:07 Earth 0.228817541135609 0.101144855022642 0.362557470877102 12.2852923749935 12.2843444929411 2438561.070263656 11526.7035265361 6779138.92244788 268.820450792517 -13.0610519014045 17437.9992496534 T 2 CATAB v2.0e-lin.ifort 2019-Jul-19 05:26:49 2019-Jul-19 05:27
1965-Jun-09 03:11 7_06:53 Earth 0.324743634410989 0.194617750465334 0.457177996785651 14.6388054496705 14.6382449512602 2438920.632910737 10492.9121839892 6687521.71372881 256.504070437412 -10.7852029879874 22682.3902175769 T 2 CATAB v2.0e-lin.ifort 2019-Jul-19 05:26:49 2019-Jul-19 05:27
1966-Jun-04 00:21 6_19:23 Earth 0.421262726822396 0.29285053109273 0.550992801347421 17.1796571516322 17.1792889807118 2439280.514766756 9802.99687791084 6542705.05191485 251.63603353126 -9.85604579693432 29116.5330771494 T 2 CATAB v2.0e-lin.ifort 2019-Jul-19 05:26:49 2019-Jul-19 05:27
2014-Jan-20 03:47 11:20 Earth 0.49733639823036 0.485180537273192 0.509494293585149 19.8694748138571 19.8692051773636 2456677.657433422 679.592586807055 608285.951811819 735.513206882547 4.74116145639031 6974.75092172362 T 2 CATAB v2.0e-lin.ifort 2019-Jul-19 05:26:49 2019-Jul-19 05:27
2015-Jan-16 07:21 08:53 Earth 0.397364645141387 0.38740044157089 0.407330770322094 17.0885300932847 17.0881376983328 2457038.806407702 532.630812654336 498829.335563435 662.93297702761 5.02761194163246 6381.33655850284 T 2 CATAB v2.0e-lin.ifort 2019-Jul-19 05:26:49 2019-Jul-19 05:27
2016-Jan-12 16:12 06:32 Earth 0.297131618213899 0.289485008240057 0.304780512997744 14.4274029872534 14.4267814249304 2457400.174972202 391.531148451836 383569.50400031 601.827991691635 6.16907050729573 6276.66441324046 T 2 CATAB v2.0e-lin.ifort 2019-Jul-19 05:26:49 2019-Jul-19 05:27
2017-Jan-08 08:11 04:05 Earth 0.197226904632282 0.192014937933716 0.202441725749643 11.9588321825582 11.9577024440284 2457761.841206859 245.185840049305 262649.736133839 556.905839091265 8.21057558404468 5926.9563425232 T 2 CATAB v2.0e-lin.ifort 2019-Jul-19 05:26:49 2019-Jul-19 05:27
2018-Jan-05 07:43 01:46 Earth 0.0989023630801529 0.0962375002041657 0.101572999788668 9.85631797503781 9.85358427276601 2458123.821698674 106.280763628817 138265.536087727 510.259637543023 15.8223459561416 6229.70473973477 T 2 CATAB v2.0e-lin.ifort 2019-Jul-19 05:26:49 2019-Jul-19 05:27
2019-Jan-02 19:43 < 00:01 Moon 0.007353623892684 0.0073374232453863 0.00736984708971657 8.68307635208856 8.6825630694509 2458486.321427627 0.593183501611924 1039.16400951205 146.20040361084 -39.4044213944464 4441.2349625525 T 2 CATAB v2.0e-lin.ifort 2019-Jul-19 05:26:49 2019-Jul-19 05:27
2019-Jan-02 22:10 < 00:01 Earth 0.00520705918189349 0.00519041700211457 0.00522370120061756 8.45957366602583 8.3988675534935 2458486.423761276 0.0910677155281666 828.627326544075 32.7623805047302 -9.26557478973887 2016.96356379326 T 2 CATAB v2.0e-lin.ifort 2019-Jul-19 05:26:49 2019-Jul-19 05:27
2020-Jan-02 16:08 01:16 Earth 0.0124617942589971 0.0102637341763702 0.0147485893784087 8.24334619449703 8.2173677521365 2458851.172133578 75.9638982107086 123560.708147908 192.829173794727 -24.7158190562678 3448.03050391628 T 2 CATAB v2.0e-lin.ifort 2019-Jul-19 05:26:49 2019-Jul-19 05:27
2020-Dec-31 22:03 00:17 Earth 0.0596406067072647 0.0586798641481961 0.0606013436522968 7.87062964853032 7.86495135921476 2459215.418878055 17.3887913150794 47899.5037728145 545.997075858012 0.687225836329807 229.71939840322 T 2 CATAB v2.0e-lin.ifort 2019-Jul-19 05:26:49 2019-Jul-19 05:27
2021-Dec-31 16:10 00:11 Earth 0.111869726332545 0.107816081438232 0.115924090046342 7.78141966950301 7.77835822505474 2459580.173327576 11.3851185840469 202650.956823538 540.451753525721 -4.07022487563064 1851.32169797864 T 2 CATAB v2.0e-lin.ifort 2019-Jul-19 05:26:49 2019-Jul-19 05:27
2022-Jul-31 12:33 1_04:37 Earth 0.24799628001368 0.243606837077598 0.252665883975115 8.51246666070683 8.51120441481296 2459792.022975640 1716.68462024757 473171.062378909 3086.53118202689 61.4727442844391 7010.29146419318 T 2 CATAB v2.0e-lin.ifort 2019-Jul-19 05:26:49 2019-Jul-19 05:27
2023-Jan-01 04:16 03:02 Earth 0.165828320969377 0.158867533208928 0.172789062298125 8.00757422432464 8.00556741040842 2459945.677917793 182.217893721806 347077.58961378 504.675802152132 -0.438343448655365 309.642145814465 T 2 CATAB v2.0e-lin.ifort 2019-Jul-19 05:26:49 2019-Jul-19 05:27
2023-Jul-21 10:59 1_02:20 Earth 0.197808399524547 0.192806584005371 0.207144357121666 8.10971539841035 8.10805425741785 2460146.957483742 1580.27736548922 1507283.97796131 2320.27191943242 76.1282721756578 7594.25365373122 T 2 CATAB v2.0e-lin.ifort 2019-Jul-19 05:26:49 2019-Jul-19 05:27
2024-Jan-03 14:36 14:43 Earth 0.219873873082633 0.210242213398995 0.229509588689946 8.51275822703364 8.51133457206606 2460313.108295848 882.912955730511 482695.972302069 282.094210201111 5.66055522649428 13084.8718027458 T 2 CATAB v2.0e-lin.ifort 2019-Jul-19 05:26:49 2019-Jul-19 05:27
